| time (UTC) | temp F | wind direction | speed MPH | gust MPH | rain 1hr in | rain 24hr in | rain mn in | humidity % | barometer mb |
| 20260506164541 | 64 | 19 | 4.0 | 14.0 | 0.00 | 0.00 | 0.00 | 61 | 1021.4 |
| 20260506164531 | 63 | 323 | 6.0 | 11.0 | 0.00 | 0.00 | 0.00 | 63 | 1021.7 |
| 20260506161531 | 62 | 335 | 7.0 | 14.0 | 0.00 | 0.00 | 0.00 | 65 | 1021.8 |
| 20260506160034 | 61 | 339 | 6.0 | 13.0 | 0.00 | 0.00 | 0.00 | 67 | 1021.5 |
| 20260506154531 | 60 | 337 | 5.0 | 11.0 | 0.00 | 0.00 | 0.00 | 69 | 1021.7 |
| 20260506153031 | 61 | 352 | 2.0 | 7.0 | 0.00 | 0.00 | 0.00 | 68 | 1021.5 |
| 20260506151530 | 60 | 128 | 0.0 | 3.0 | 0.00 | 0.00 | 0.00 | 74 | 1021.4 |
| 20260506141531 | 47 | 120 | 2.0 | 4.0 | 0.00 | 0.00 | 0.00 | 95 | 1021.3 |
| 20260506140038 | 46 | 148 | 2.0 | 5.0 | 0.00 | 0.00 | 0.00 | 96 | 1021.2 |
| 20260506133035 | 44 | 155 | 3.0 | 5.0 | 0.00 | 0.00 | 0.00 | 96 | 1020.8 |
| 20260506131537 | 44 | 152 | 4.0 | 7.0 | 0.00 | 0.00 | 0.00 | 96 | 1020.8 |
| 20260506130107 | 44 | 157 | 3.0 | 5.0 | 0.00 | 0.00 | 0.00 | 96 | 1020.6 |
| 20260506124607 | 44 | 138 | 3.0 | 7.0 | 0.00 | 0.00 | 0.00 | 96 | 1020.5 |
| 20260506123031 | 44 | 152 | 4.0 | 7.0 | 0.00 | 0.00 | 0.00 | 96 | 1020.4 |
| 20260506121534 | 44 | 154 | 4.0 | 6.0 | 0.00 | 0.00 | 0.00 | 96 | 1020.2 |
| 20260506120035 | 44 | 150 | 4.0 | 6.0 | 0.00 | 0.00 | 0.00 | 96 | 1020.1 |
| 20260506114534 | 44 | 155 | 4.0 | 5.0 | 0.00 | 0.00 | 0.00 | 96 | 1020.0 |
| 20260506113104 | 44 | 156 | 3.0 | 5.0 | 0.00 | 0.00 | 0.00 | 96 | 1019.9 |
| 20260506111531 | 44 | 159 | 4.0 | 7.0 | 0.00 | 0.00 | 0.00 | 96 | 1019.7 |
| 20260506110031 | 44 | 157 | 5.0 | 6.0 | 0.00 | 0.00 | 0.00 | 96 | 1019.7 |
| 20260506104535 | 45 | 157 | 4.0 | 6.0 | 0.00 | 0.00 | 0.00 | 96 | 1019.5 |
| 20260506103032 | 45 | 157 | 4.0 | 5.0 | 0.00 | 0.00 | 0.00 | 96 | 1019.3 |
| 20260506101531 | 44 | 158 | 3.0 | 5.0 | 0.00 | 0.00 | 0.00 | 96 | 1019.3 |
| 20260506100057 | 45 | 157 | 3.0 | 5.0 | 0.00 | 0.00 | 0.00 | 96 | 1019.2 |
| 20260506093035 | 45 | 157 | 1.0 | 4.0 | 0.00 | 0.00 | 0.00 | 95 | 1019.2 |
| 20260506091533 | 45 | 154 | 3.0 | 4.0 | 0.00 | 0.00 | 0.00 | 95 | 1019.1 |
| 20260506090034 | 45 | 157 | 3.0 | 5.0 | 0.00 | 0.00 | 0.00 | 95 | 1019.1 |
| 20260506084531 | 46 | 157 | 3.0 | 4.0 | 0.00 | 0.00 | 0.00 | 95 | 1019.0 |
| 20260506083028 | 46 | 155 | 3.0 | 5.0 | 0.00 | 0.00 | 0.00 | 95 | 1018.9 |
| 20260506081534 | 46 | 157 | 3.0 | 4.0 | 0.00 | 0.00 | 0.00 | 94 | 1018.8 |
| 20260506080106 | 47 | 157 | 3.0 | 4.0 | 0.00 | 0.00 | 0.00 | 94 | 1018.7 |
| 20260506073033 | 47 | 146 | 1.0 | 4.0 | 0.00 | 0.00 | 0.00 | 93 | 1018.5 |
| 20260506071534 | 48 | 141 | 1.0 | 4.0 | 0.00 | 0.00 | 0.00 | 93 | 1018.5 |
| 20260506061534 | 50 | 157 | 3.0 | 4.0 | 0.00 | 0.00 | 0.00 | 92 | 1018.2 |
| 20260506044535 | 54 | 101 | 1.0 | 4.0 | 0.00 | 0.00 | 0.00 | 80 | 1017.5 |
| 20260506043035 | 56 | 22 | 0.0 | 0.0 | 0.00 | 0.00 | 0.00 | 77 | 1017.5 |
| 20260506041537 | 58 | 23 | 0.0 | 3.0 | 0.00 | 0.00 | 0.00 | 73 | 1017.4 |
| 20260506040141 | 60 | 8 | 1.0 | 5.0 | 0.00 | 0.00 | 0.00 | 71 | 1017.2 |
| 20260506034532 | 60 | 33 | 2.0 | 6.0 | 0.00 | 0.00 | 0.00 | 70 | 1016.9 |
| 20260506033031 | 62 | 89 | 1.0 | 4.0 | 0.00 | 0.00 | 0.00 | 66 | 1016.6 |
| 20260506031532 | 64 | 340 | 1.0 | 4.0 | 0.00 | 0.00 | 0.00 | 62 | 1016.5 |
| 20260506030037 | 66 | 322 | 1.0 | 5.0 | 0.00 | 0.00 | 0.00 | 59 | 1016.3 |
| 20260506024536 | 67 | 348 | 3.0 | 8.0 | 0.00 | 0.00 | 0.00 | 57 | 1016.1 |
| 20260506023034 | 69 | 354 | 4.0 | 8.0 | 0.00 | 0.00 | 0.00 | 55 | 1016.0 |
| 20260506020150 | 71 | 7 | 5.0 | 10.0 | 0.00 | 0.00 | 0.00 | 52 | 1015.8 |
| 20260506014636 | 72 | 1 | 5.0 | 12.0 | 0.00 | 0.00 | 0.00 | 50 | 1015.7 |
| 20260506011606 | 75 | 2 | 4.0 | 11.0 | 0.00 | 0.00 | 0.00 | 46 | 1015.6 |
| 20260506010033 | 76 | 317 | 5.0 | 12.0 | 0.00 | 0.00 | 0.00 | 45 | 1015.5 |
| 20260506004635 | 76 | 316 | 5.0 | 10.0 | 0.00 | 0.00 | 0.00 | 47 | 1015.6 |
| 20260506003033 | 76 | 7 | 4.0 | 10.0 | 0.00 | 0.00 | 0.00 | 49 | 1015.6 |
| 20260505234530 | 75 | 12 | 5.0 | 11.0 | 0.00 | 0.00 | 0.00 | 49 | 1015.8 |
| 20260505233031 | 75 | 22 | 5.0 | 11.0 | 0.00 | 0.00 | 0.00 | 48 | 1015.8 |
| 20260505230148 | 75 | 10 | 5.0 | 11.0 | 0.00 | 0.00 | 0.00 | 48 | 1015.9 |
| 20260505224532 | 75 | 354 | 5.0 | 11.0 | 0.00 | 0.00 | 0.00 | 49 | 1016.0 |
| 20260505221637 | 75 | 1 | 4.0 | 9.0 | 0.00 | 0.00 | 0.00 | 48 | 1016.2 |
| 20260505220035 | 75 | 7 | 5.0 | 11.0 | 0.00 | 0.00 | 0.00 | 48 | 1016.3 |
| 20260505214534 | 75 | 6 | 4.0 | 13.0 | 0.00 | 0.00 | 0.00 | 48 | 1016.3 |
| 20260505213105 | 74 | 5 | 3.0 | 8.0 | 0.00 | 0.00 | 0.00 | 50 | 1016.4 |
| 20260505211530 | 74 | 331 | 5.0 | 10.0 | 0.00 | 0.00 | 0.00 | 50 | 1016.5 |
| 20260505210031 | 73 | 345 | 4.0 | 9.0 | 0.00 | 0.00 | 0.00 | 51 | 1016.6 |
| 20260505204533 | 73 | 356 | 5.0 | 10.0 | 0.00 | 0.00 | 0.00 | 51 | 1016.7 |
| 20260505203034 | 72 | 352 | 5.0 | 10.0 | 0.00 | 0.00 | 0.00 | 52 | 1016.8 |
| 20260505201534 | 72 | 340 | 4.0 | 11.0 | 0.00 | 0.00 | 0.00 | 52 | 1016.8 |
| 20260505200028 | 71 | 345 | 4.0 | 9.0 | 0.00 | 0.00 | 0.00 | 54 | 1016.9 |
| 20260505194530 | 70 | 12 | 5.0 | 10.0 | 0.00 | 0.00 | 0.00 | 54 | 1017.0 |
| 20260505191530 | 70 | 39 | 4.0 | 9.0 | 0.00 | 0.00 | 0.00 | 54 | 1017.2 |
| 20260505190033 | 69 | 3 | 3.0 | 9.0 | 0.00 | 0.00 | 0.00 | 54 | 1017.2 |
| 20260505184530 | 69 | 15 | 4.0 | 10.0 | 0.00 | 0.00 | 0.00 | 55 | 1017.3 |
| 20260505183031 | 68 | 40 | 4.0 | 10.0 | 0.00 | 0.00 | 0.00 | 55 | 1017.3 |
| 20260505181536 | 68 | 16 | 5.0 | 11.0 | 0.00 | 0.00 | 0.00 | 54 | 1017.3 |
| 20260505180108 | 68 | 16 | 4.0 | 10.0 | 0.00 | 0.00 | 0.00 | 54 | 1017.2 |
| 20260505174535 | 67 | 34 | 4.0 | 12.0 | 0.00 | 0.00 | 0.00 | 56 | 1017.2 |
| 20260505173035 | 67 | 355 | 4.0 | 10.0 | 0.00 | 0.00 | 0.00 | 56 | 1017.1 |
| 20260505171536 | 66 | 31 | 3.0 | 8.0 | 0.00 | 0.00 | 0.00 | 58 | 1017.1 |
| 20260505170038 | 64 | 358 | 4.0 | 9.0 | 0.00 | 0.00 | 0.00 | 60 | 1017.1 |